Regional Weather Roundup
Issued by NWS

Home | Current Version | Previous Version | Graphics & Text | Print | Product List | Glossary On
Versions: 1 2 3 4 5 6 7 8 9 10 11 12 13 14 15 16 17 18 19 20 21 22 23 24 25 26 27 28 29 30 31 32 33 34 35 36 37 38 39 40 41 42 43 44 45 46 47 48 49 50
000
ASUS43 KMPX 192310
RWRMN
WEATHER ROUNDUP FOR MINNESOTA
NATIONAL WEATHER SERVICE TWIN CITIES/CHANHASSEN MN
600 PM CDT SAT MAY 19 2018


NOTE: "FAIR" INDICATES FEW OR NO CLOUDS BELOW 12,000 FEET WITH NO
SIGNIFICANT WEATHER AND/OR OBSTRUCTIONS TO VISIBILITY. N/A MEANS
CURRENT SKY AND/OR WEATHER CONDITIONS ARE NOT AVAILABLE.

MNZ060>063-068>070-200000-
   Twin Cities Metro

CITY           SKY/WX    TMP DP  RH WIND       PRES   REMARKS
TWIN CITIES    CLOUDY    57  48  72 NE17G31   30.02R
ST PAUL        CLOUDY    56  46  69 N16G24    30.03R
CRYSTAL        CLOUDY    57  46  66 N13G20    30.02R
BLAINE         CLOUDY    57  46  67 NE14G21   30.03R
LAKEVILLE      CLOUDY    55  46  71 N14       30.02R
EDEN PRAIRIE   CLOUDY    57  46  66 N10G26    30.00R
SOUTH ST PAUL  CLOUDY    56  46  67 NE12G17   30.01R
LAKE ELMO      CLOUDY    54  46  76 N14G22    30.03S
$$
MNZ001>005-007-008-013>017-022>024-027-028-200000-
   Northwest Minnesota

CITY           SKY/WX    TMP DP  RH WIND       PRES   REMARKS
BEMIDJI        FAIR      62  30  30 N13G22    30.13S
HALLOCK        FAIR      66  30  26 N12       30.17F
ROSEAU         FAIR      63  41  45 SE9       30.17S
WARROAD        FAIR      61  39  44 E12       30.18S
THIEF RVR FALL FAIR      64  33  31 NE14G21   30.17F
CROOKSTON      FAIR      66  36  32 NE9G17    30.16S
FOSSTON        FAIR      64  32  29 NE10G16   30.14F
DETROIT LAKES  FAIR      63  32  31 NE13      30.12R
MOORHEAD       FAIR      66  28  24 N21G26    30.12S
PARK RAPIDS    FAIR      63  31  30 NE16G29   30.09S
MAHNOMEN       FAIR      62  32  33 NE22      30.12F
$$
MNZ006-009>011-018-025>026-200000-
   North Central Minnesota

CITY           SKY/WX    TMP DP  RH WIND       PRES   REMARKS
BAUDETTE       FAIR      62  32  32 N7        30.16S
FLAG ISLAND    FAIR      63  32  31 NE3       30.15F
INTL FALLS     FAIR      60  34  37 N10       30.15S
WASKISH        FAIR      63  34  34 N10G16    30.15S
BIG FORK       FAIR      61  30  31 N9G17     30.13F
LONGVILLE      FAIR      61  30  31 N7G21     30.10S
GRAND RAPIDS   FAIR      59  36  42 N14G21    30.13S
CRANE LAKE     FAIR      57  34  41 N8        30.16S
ORR            FAIR      59  27  29 N5        30.12R
COOK           FAIR      59  34  38 NE5       30.14S
WALKER         FAIR      60  29  30 NE10G21   30.11S
$$
MNZ012-019>021-037-200000-
   Northeast Minnesota

CITY           SKY/WX    TMP DP  RH WIND       PRES   REMARKS
DULUTH         FAIR      53  40  61 E13       30.10S
ELY            FAIR      54  36  50 E6        30.13S
HIBBING        FAIR      57  33  40 N16G24    30.11S
EVELETH        FAIR      57  37  47 NE9G18    30.12S
DULUTH HARBOR  FAIR      46  41  81 N8        30.13S
TWO HARBORS    FAIR      61  43  51 E10       30.10R
SILVER BAY     FAIR      57  37  47 NE9       30.10S
GRAND MARAIS     N/A     57  36  45 N8G17     30.11S
G MARAIS ARPRT FAIR      48  34  57 N14G22    30.12R
$$
MNZ029>031-032-039>041-046>048-054>057-064-200000-
   West Central Minnesota

CITY           SKY/WX    TMP DP  RH WIND       PRES   REMARKS
FERGUS FALLS   FAIR      64  32  29 E17       30.05R
WHEATON        CLOUDY    66  27  22 NE14G21   30.09R
MORRIS         MOSUNNY   66  30  26 NE16G25   30.05R
ALEXANDRIA     FAIR      65  35  33 NE16G23   30.08R
ELBOW LAKE     FAIR      63  33  33 NE12G21   30.08R
WADENA         FAIR      63  34  34 NE15G25   30.08R
GLENWOOD       FAIR      64  36  34 NE20      30.06R
APPLETON       MOSUNNY   70  30  23 NE18G25   30.03R
BENSON         MOSUNNY   66  36  32 NE18G25   30.05S
ORTONVILLE     MOSUNNY   66  34  30 NE21      30.04S
MADISON        MOSUNNY   70  36  28 NE21G29   30.03R
WILLMAR        FAIR      63  45  51 NE16G22   30.05R
$$
MNZ033>034-036-042>043-049>051-058-059-200000-
   Central Minnesota

CITY           SKY/WX    TMP DP  RH WIND       PRES   REMARKS
ST CLOUD       PTSUNNY   59  44  57 NE16G25   30.06R
SAUK CENTRE    FAIR      63  38  39 NE15G22   30.06R
PAYNESVILLE    FAIR      63  44  50 NE16G25   30.04S
AITKIN         FAIR      59  37  44 N17       30.08R
PINE RIVER     FAIR      61  32  33 N14G24    30.12R
BRAINERD       FAIR      63  35  35 NE21      30.08R
STAPLES        FAIR      63  28  27 NE15G25   30.07S
LONG PRAIRIE   FAIR      63  36  36 N13G23    30.07R
LITTLE FALLS   FAIR      61  39  44 NE7       30.07R
LITCHFIELD     PTSUNNY   61  48  63 NE18G29   30.05R
BUFFALO        CLOUDY    57  45  64 N15G24    30.06R
MAPLE LAKE     CLOUDY    58  47  66 NE16      30.06R
HUTCHINSON     CLOUDY    60  47  64 N18G25    30.03R
$$
MNZ037-044-045-052-053-200000-
   East Central Minnesota

CITY           SKY/WX    TMP DP  RH WIND       PRES   REMARKS
PRINCETON      CLOUDY    57  45  62 N14G23    30.06S
MORA           CLOUDY    54  43  66 NE8G18    30.10R
CAMBRIDGE      CLOUDY    57  45  62 N9G20     30.06R
RUSH CITY      CLOUDY    55  44  67 NE13G25   30.07R
MOOSE LAKE     FAIR      55  39  54 NE8G17    30.08R
HINCKLEY       CLOUDY    54  43  66 NE13      30.09R
CLOQUET        FAIR      55  36  47 NE12G20   30.10R
MCGREGOR       FAIR      59  39  47 N12G17    30.10R
$$
MNZ071>073-080-081-089-090-097-098-200000-
   Southwest Minnesota

CITY           SKY/WX    TMP DP  RH WIND       PRES   REMARKS
MONTEVIDEO     SUNNY     68  39  34 E18G31    30.02R
GRANITE FALLS  MOSUNNY   68  48  48 NE20G25   30.03R
CANBY          MOSUNNY   69  40  34 NE18G28   30.03R
MARSHALL       CLOUDY    66  48  52 E16G24    30.01R
REDWOOD FALLS  CLOUDY    63  48  58 NE8G20    30.01R
OLIVIA         PTSUNNY   63  45  51 NE17G24   30.01R
PIPESTONE      CLOUDY    64  50  59 E10G17    30.00S
WINDOM         CLOUDY    61  39  44 N12       30.00R
WORTHINGTON      N/A     60  49  66 N10       30.01S
JACKSON        CLOUDY    59  48  67 N12       30.00R
TRACY          CLOUDY    63  50  63 NE13G20   30.01R
SLAYTON        CLOUDY    61  49  65 NE9       30.02R
$$
MNZ065>067-074>077-082>085-091>093-200000-
   South Central Minnesota

CITY           SKY/WX    TMP DP  RH WIND       PRES   REMARKS
MANKATO        CLOUDY    59  49  69 NE18G28   29.99R
NEW ULM        CLOUDY    57  46  67 NE14      30.01R
ST JAMES       CLOUDY    61  50  67 N15       30.01R
FAIRMONT       CLOUDY    60  51  72 N10       29.99R
GLENCOE        CLOUDY    58  48  69 NE8G20    30.02R
FARIBAULT      CLOUDY    59  50  72 CALM      30.00R
OWATONNA       FAIR      57  52  82 N14G20    29.98R
WASECA         CLOUDY    59  50  72 N17G23    29.99R
ALBERT LEA     CLOUDY    61  50  67 N15G22    29.96R
$$
MNZ078>079-086>088-094>096-200000-
   Southeast Minnesota

CITY           SKY/WX    TMP DP  RH WIND       PRES   REMARKS
ROCHESTER      CLOUDY    62  55  77 N15       29.95R
RED WING       CLOUDY    57  45  62 N13       29.99R
STANTON        CLOUDY    59  49  69 N15       29.99R
DODGE CENTER   CLOUDY    57  50  77 N15G23    29.97R
WINONA         CLOUDY    66  55  68 N7        29.91R
AUSTIN         FAIR      63  54  72 N13G22    29.94R
PRESTON        PTSUNNY   66  57  73 N12G17    29.93R HAZE
$$
ABBREVIATIONS USED IN REMARKS
   TC - TEMPERATURES IN CELSIUS
  WCI - WIND CHILL INDEX
   HX - HEAT INDEX
  VSB - VISIBILITY
$$




USA.gov is the U.S. government's official web portal to all federal, state and local government web resources and services.